ECMWFNIL_sfc_dewp_129.txt.gz
Dewpoint
62 62 61 60 59 59 57 55 55 54 54 54 53 53 54 54 55 54 54 54 54 53 53 54 54 54 54 53 53 54 54 53 53 53 53 54 53 52 51 50 49 48
61 60 59 58 57 56 55 55 54 54 53 53 53 54 54 54 54 53 53 53 53 53 53 53 53 53 53 53 52 52 52 52 53 54 53 53 52 51 49 47 46 46
58 58 57 56 55 55 54 54 54 53 53 53 54 54 54 54 53 53 53 52 52 52 52 52 52 52 52 52 52 52 52 51 52 52 53 52 52 50 47 46 45 45
57 57 56 55 55 54 54 53 54 54 54 53 53 54 54 53 52 52 52 53 50 50 50 51 51 51 52 52 52 52 51 51 51 51 52 52 51 48 46 46 46 44
55 55 55 54 54 54 53 53 53 53 53 53 53 53 52 51 50 50 50 49 49 49 50 50 51 51 51 51 50 51 52 51 51 51 51 51 49 47 46 44 43 43
54 54 54 54 53 53 53 53 53 52 52 52 51 51 50 50 49 49 49 48 49 49 49 49 50 50 50 49 49 49 49 48 47 48 49 49 46 45 44 43 42 41
53 53 53 53 53 53 52 52 52 52 51 51 50 49 49 48 48 48 48 48 48 49 48 48 49 49 50 49 48 47 46 45 45 45 45 46 48 46 44 43 43 41
53 53 52 52 52 52 51 51 51 51 51 50 49 49 48 48 47 48 47 47 47 47 47 47 47 47 48 48 45 44 44 44 44 43 43 43 43 42 42 43 41 40
52 52 52 51 51 51 51 51 51 50 50 49 48 48 48 47 47 47 47 46 46 45 45 45 45 46 46 45 43 42 42 42 43 42 42 42 42 41 41 41 40 41
51 51 51 51 51 51 50 50 50 49 49 48 47 47 46 47 46 45 45 44 44 43 44 44 45 45 45 44 42 41 40 40 40 40 41 41 41 41 40 40 40 39
51 51 50 50 50 50 50 50 49 48 48 47 47 46 46 45 46 45 44 43 43 43 43 43 44 45 44 43 41 41 40 40 39 39 39 40 40 41 44 40 40 39
50 50 50 50 50 50 50 49 49 48 47 47 46 45 45 45 44 44 44 42 42 42 42 43 44 44 44 42 41 40 40 40 39 39 39 39 39 39 40 40 40 40
50 50 50 50 50 50 49 49 48 47 47 46 46 44 44 43 43 42 43 42 42 42 43 43 44 44 43 42 41 40 39 39 39 38 39 39 38 39 39 38 38 40
49 50 50 50 50 49 49 48 47 47 46 46 45 44 43 43 42 42 42 42 42 43 43 44 43 43 42 42 41 41 40 39 39 38 38 37 37 37 38 37 37 38
49 50 50 49 49 48 48 47 47 46 46 45 45 45 45 44 44 43 43 41 41 42 42 43 42 42 41 41 40 39 39 38 38 38 37 36 36 36 36 36 36 37
49 49 49 48 48 47 47 47 46 46 46 45 44 44 43 42 41 41 40 41 41 41 42 42 42 43 45 43 43 40 39 38 38 37 37 36 36 35 35 36 35 36
49 49 48 47 47 47 46 46 46 46 44 43 42 42 41 41 39 39 40 40 41 41 41 42 42 43 41 39 40 41 39 37 36 36 36 36 35 34 35 36 35 34
50 49 48 48 48 48 47 46 47 45 43 42 42 41 41 40 39 39 39 39 40 41 41 41 41 43 39 39 39 39 41 40 37 36 37 35 35 34 35 35 35 34
49 48 48 47 47 47 46 45 43 42 41 40 41 41 40 39 38 38 38 39 40 40 40 40 39 41 39 40 39 39 39 40 37 37 37 35 35 35 35 35 35 36
48 47 46 46 47 46 45 44 43 42 41 42 42 40 39 38 38 37 37 38 39 39 39 38 38 41 40 40 39 39 39 40 38 38 37 37 37 36 35 35 36 36
48 46 45 45 45 46 44 43 41 40 40 39 38 38 37 36 36 36 37 38 38 38 39 38 38 39 39 39 39 39 39 40 38 38 38 36 36 35 35 35 36 37
47 46 45 45 45 44 42 40 39 38 37 38 38 37 37 36 35 36 35 36 37 38 38 36 37 39 39 39 39 39 40 41 38 38 36 35 34 34 34 34 37 37
47 45 45 44 43 42 40 39 38 38 38 37 35 34 34 34 34 35 36 36 37 36 35 35 35 37 38 38 38 38 38 37 36 35 34 34 33 33 33 34 37 38
46 45 44 43 42 40 39 39 38 37 36 37 34 34 34 34 34 34 35 36 34 34 35 34 34 37 37 37 37 37 38 35 34 34 33 34 33 33 33 33 36 41
45 44 44 42 41 40 39 38 37 37 38 37 36 35 36 35 36 34 34 35 35 37 39 34 34 36 36 36 36 37 38 34 35 34 32 32 33 32 32 32 32 36
45 44 43 42 41 40 39 38 39 37 36 35 36 35 35 35 34 33 32 33 33 33 34 34 34 34 35 36 36 37 37 36 34 32 33 31 31 34 31 30 32 32

ECMWFNIL_sfc_dewp_132.txt.gz
Dewpoint
62 62 62 62 61 59 56 55 55 54 54 54 54 54 54 55 55 54 54 54 54 54 54 54 54 54 54 53 54 54 54 54 54 52 50 49 48 47 46 46 46 46
61 61 61 60 58 57 56 56 55 54 54 54 54 54 54 54 54 54 53 53 53 53 53 53 53 53 53 53 53 53 53 53 53 52 49 48 47 46 46 46 45 45
60 60 59 58 56 55 55 55 54 54 54 54 54 54 54 54 53 53 53 53 52 52 52 53 53 53 53 53 52 52 52 52 51 50 48 47 47 46 45 45 44 44
59 59 57 56 56 54 54 54 54 54 54 54 54 54 54 53 52 52 52 53 51 52 52 52 52 52 52 52 52 51 52 51 50 49 47 46 46 45 44 44 44 43
57 57 56 55 55 55 54 54 54 54 54 53 53 53 52 51 51 51 51 51 51 51 51 51 51 50 51 50 50 50 50 49 49 47 45 45 45 44 44 43 43 42
56 56 56 55 54 54 54 53 53 53 52 52 52 52 51 51 50 50 50 50 50 50 50 50 50 50 48 48 47 48 48 48 48 47 46 45 44 44 43 43 42 42
55 55 56 56 55 55 54 53 52 52 51 51 51 50 50 50 49 49 50 50 49 49 48 49 48 47 47 46 46 46 46 45 45 44 43 43 43 43 42 42 42 41
54 54 54 54 54 54 52 51 51 51 51 50 49 49 49 49 49 49 48 48 47 47 47 47 46 45 45 45 45 44 44 45 44 43 42 42 42 41 42 42 42 40
54 53 52 52 52 51 51 50 50 50 50 49 48 48 48 48 48 47 47 46 46 46 46 45 45 44 43 43 43 43 42 43 43 42 42 41 41 41 41 41 41 41
53 53 52 52 51 51 50 50 49 49 49 48 47 47 47 47 46 45 45 45 46 45 45 44 43 43 42 42 42 41 41 41 41 42 42 42 41 41 41 41 41 40
52 52 51 51 51 50 49 49 48 48 48 46 46 46 46 45 46 45 45 45 45 44 44 43 43 42 41 41 41 41 41 40 40 40 41 40 41 41 43 41 41 41
52 51 51 51 50 49 49 48 48 47 46 46 45 45 45 44 44 44 45 44 44 44 44 43 42 42 41 40 40 41 40 41 40 40 40 39 39 39 39 41 41 41
52 51 51 50 49 48 48 47 47 46 45 45 45 44 44 44 44 44 45 44 44 44 44 43 42 41 40 40 39 39 39 39 39 39 39 39 38 38 38 39 39 41
52 51 50 49 48 48 47 47 46 45 44 44 44 43 43 43 43 44 44 44 44 44 45 44 42 40 40 40 39 40 40 39 39 39 38 37 38 38 38 38 38 40
50 50 49 49 48 47 46 45 45 44 44 44 44 44 44 44 44 45 45 45 45 44 43 42 41 40 40 39 39 38 38 38 37 37 37 37 37 37 37 37 37 38
51 50 49 48 47 46 45 45 44 44 44 43 43 43 43 43 43 43 43 43 42 42 42 42 41 41 44 42 42 40 38 38 38 38 37 37 38 37 37 37 37 37
49 49 48 47 46 46 45 45 44 44 42 42 42 42 43 43 42 43 42 42 42 41 41 41 41 42 40 38 39 40 38 38 37 37 37 37 37 37 37 38 37 36
49 49 48 47 47 46 46 45 45 43 43 42 42 43 43 42 42 42 42 42 42 41 40 40 40 41 38 38 38 38 40 40 38 37 38 37 37 37 37 38 37 37
48 48 48 47 47 46 46 45 44 43 42 41 42 42 42 42 41 41 42 42 40 39 39 40 39 39 38 39 38 38 39 40 39 38 38 37 37 37 37 37 37 37
48 47 46 46 46 45 44 42 42 41 42 42 43 42 41 40 41 41 41 41 40 40 39 39 39 40 39 39 39 38 39 40 38 38 37 37 36 37 38 38 37 36
47 46 46 45 44 43 42 41 41 41 41 40 40 39 39 39 40 40 41 41 40 40 40 40 41 39 39 39 39 39 38 38 38 37 37 36 36 36 37 38 38 36
46 46 45 44 42 41 40 40 40 40 39 39 39 38 38 39 39 40 40 40 40 40 40 40 41 39 38 39 39 39 39 40 37 36 35 35 35 35 36 39 39 36
45 45 44 43 41 40 39 39 38 38 38 38 36 36 37 38 38 39 39 39 40 40 39 39 40 40 38 38 38 37 37 36 36 36 35 35 35 35 35 38 41 39
45 44 43 42 40 39 38 38 38 38 37 37 35 36 36 36 37 38 38 39 38 38 39 39 38 39 38 38 37 37 38 36 35 34 34 34 34 34 35 35 39 41
46 44 42 41 39 38 38 37 37 37 37 36 36 35 36 36 38 36 36 36 37 38 42 38 37 39 37 36 37 37 38 36 34 33 33 33 33 33 34 34 34 38
46 45 42 40 38 38 37 37 38 36 36 35 35 35 35 36 36 35 35 35 36 37 38 37 36 37 38 36 37 37 37 37 35 34 34 33 35 35 32 33 34 34

ECMWFNIL_sfc_dewp_135.txt.gz
Dewpoint
65 65 65 65 64 62 61 61 61 60 60 60 57 57 57 58 58 58 58 59 59 58 58 58 57 58 57 57 56 54 52 52 51 51 50 50 49 50 49 50 50 48
64 65 64 64 62 61 61 61 60 59 59 58 57 57 57 57 58 58 58 58 57 57 57 57 57 56 55 54 55 53 51 51 50 50 49 49 48 49 49 50 49 49
64 64 63 61 60 59 59 59 59 59 58 57 57 57 56 57 57 57 57 57 56 56 57 56 55 55 55 54 53 52 51 50 49 49 48 48 48 48 49 48 49 49
64 63 61 61 60 58 58 58 58 58 57 56 56 56 56 56 56 56 56 56 56 56 56 55 54 54 54 54 53 50 50 48 48 48 48 47 48 48 48 48 48 48
62 61 60 59 58 58 58 58 57 57 56 56 56 56 55 55 55 55 55 55 55 54 54 54 54 54 54 53 51 50 49 47 47 47 46 46 47 47 47 47 47 46
60 58 58 58 58 58 57 57 56 56 55 55 55 54 54 55 54 54 54 54 53 53 53 53 53 53 53 52 52 50 49 47 46 45 44 45 45 45 45 45 45 44
59 58 57 57 57 57 57 56 56 56 54 54 54 54 54 54 54 53 53 53 52 51 51 52 52 52 52 51 49 47 46 46 44 43 43 43 44 44 44 44 43 41
57 57 57 57 57 56 55 55 55 55 53 53 54 54 54 52 52 53 52 51 50 50 50 50 50 50 50 48 46 46 46 46 44 43 43 43 43 42 43 43 43 40
58 57 57 57 56 55 54 54 54 53 53 53 53 53 53 52 52 52 51 50 49 49 48 48 49 48 49 47 45 44 43 44 44 43 43 43 42 41 40 41 41 41
56 56 56 55 54 54 54 54 53 52 52 52 52 52 51 51 51 51 50 50 49 48 47 47 47 46 45 44 43 42 41 41 42 43 42 42 41 40 40 40 40 41
56 55 55 54 53 53 53 52 51 51 51 50 51 50 50 50 50 50 49 48 48 46 46 45 45 44 43 43 44 43 41 41 41 41 42 42 42 42 42 41 41 41
54 54 54 53 52 52 51 52 51 50 50 50 49 49 50 50 50 49 48 46 45 45 44 44 43 43 41 41 41 42 42 42 42 41 41 40 41 41 41 42 42 41
54 53 53 52 52 51 51 49 49 50 49 49 49 49 49 49 49 47 47 46 45 45 44 43 42 42 41 41 39 39 40 40 41 41 41 41 41 40 41 42 41 41
54 53 52 52 50 49 48 48 48 48 48 49 49 49 49 47 47 47 46 45 45 44 43 43 41 40 40 39 39 40 40 40 40 40 40 40 41 40 41 41 42 42
52 51 50 49 48 48 47 47 47 47 47 48 49 49 49 47 47 46 46 45 44 44 42 42 41 41 41 40 40 40 40 39 39 38 39 38 38 39 40 40 40 42
52 51 49 48 48 47 47 47 46 47 47 48 48 48 48 47 46 46 44 44 42 41 41 42 41 42 43 42 41 39 39 41 41 40 38 38 38 38 38 38 37 38
51 49 49 47 47 46 46 46 46 47 47 47 47 48 48 47 46 45 44 43 41 40 40 41 41 41 39 37 38 40 41 40 39 40 40 39 38 38 37 36 35 34
50 48 47 46 46 45 45 45 45 46 46 47 48 48 47 47 46 44 44 43 41 39 40 40 41 41 37 38 38 38 41 41 40 39 41 39 39 37 36 34 35 36
50 48 47 46 46 46 46 45 45 46 46 46 47 47 47 46 44 44 43 42 40 38 39 40 40 38 38 38 38 38 38 40 38 41 38 40 39 37 35 34 34 35
50 49 49 47 46 46 47 47 47 46 47 47 47 47 46 45 45 44 42 40 39 39 39 40 40 39 38 38 38 37 38 40 42 43 42 40 39 39 37 36 36 34
49 48 46 45 45 45 45 45 45 46 46 46 46 45 45 44 43 43 41 40 39 39 39 41 43 39 38 38 37 37 37 39 43 42 41 41 41 41 40 40 39 39
47 46 45 45 45 45 45 45 45 46 46 46 45 45 44 43 42 42 41 40 40 40 40 41 43 38 38 38 37 37 38 41 41 41 40 39 40 41 39 38 38 37
47 46 45 44 44 44 44 45 45 45 45 45 45 44 43 42 42 41 40 40 40 40 40 42 43 40 38 37 36 36 38 38 39 36 38 39 39 41 39 40 40 37
46 45 44 44 44 43 43 44 44 44 44 45 44 43 42 41 41 40 40 40 40 40 40 42 43 41 38 37 37 37 38 38 35 35 38 37 37 39 38 38 40 42
47 45 44 43 43 43 44 43 43 43 44 44 44 43 43 41 39 39 40 40 41 42 45 43 43 42 37 36 36 36 39 38 32 32 35 35 33 34 37 35 37 38
46 45 45 43 42 42 42 42 42 42 43 43 43 42 41 39 39 39 39 40 43 43 44 44 44 44 42 37 37 37 37 35 33 31 33 35 32 30 31 33 35 36

ECMWFNIL_sfc_dewp_138.txt.gz
Dewpoint
66 66 66 66 66 64 64 64 64 63 62 63 64 64 62 61 61 62 62 60 60 59 58 58 57 58 57 56 56 55 54 55 54 53 53 52 52 53 52 53 53 51
66 66 66 66 65 65 64 64 64 64 64 64 63 63 61 60 60 60 60 59 59 58 57 57 57 56 56 55 55 55 53 54 53 52 52 51 51 52 53 53 53 52
66 66 65 64 64 63 64 64 64 64 64 63 62 62 60 60 60 59 58 58 58 57 57 56 56 55 54 53 54 54 53 52 52 51 51 51 51 51 52 52 51 51
66 65 65 65 64 63 63 62 63 63 61 61 61 60 60 59 59 58 57 57 57 56 56 55 55 54 53 53 54 52 52 51 50 51 50 51 51 50 50 51 50 49
64 65 65 64 64 63 62 61 61 62 60 60 60 59 58 58 58 57 57 57 56 55 55 54 54 54 53 52 53 52 51 49 49 49 49 49 50 50 49 49 48 47
63 64 64 64 62 61 61 60 60 60 59 60 59 58 58 57 57 56 56 56 54 53 54 54 53 52 52 51 52 51 49 48 48 48 47 48 47 47 45 45 45 45
64 64 64 62 61 61 60 61 61 60 59 59 57 58 57 57 56 55 55 55 53 52 52 53 53 52 51 51 51 49 47 47 46 45 45 45 46 45 43 43 42 41
63 63 61 61 62 61 60 60 59 60 59 58 57 57 57 55 55 55 54 54 51 50 51 51 51 50 50 50 48 47 47 47 46 44 44 44 44 43 43 43 44 41
62 60 59 60 60 59 59 57 57 59 59 59 57 56 56 55 55 55 53 52 49 51 50 50 49 49 50 49 47 45 45 46 46 45 44 43 43 42 41 42 43 43
61 60 60 59 59 58 58 57 57 58 59 59 58 56 54 55 54 53 51 51 49 49 49 49 49 49 48 45 44 44 44 44 44 44 43 42 41 40 41 42 42 43
61 60 60 59 58 58 58 58 57 57 57 56 56 55 54 53 53 52 51 50 50 47 48 49 48 47 45 44 44 44 43 43 42 42 44 43 43 42 43 42 42 42
59 60 59 57 56 55 57 57 56 56 55 55 54 53 53 53 52 52 49 49 49 48 49 47 46 46 43 41 42 43 43 43 43 43 42 42 42 43 42 42 42 41
59 58 57 56 55 56 56 56 55 56 55 54 53 53 52 52 51 49 50 49 48 48 47 46 45 43 42 43 42 41 42 42 43 43 42 43 42 41 42 43 41 40
58 57 56 55 54 54 54 55 55 54 53 53 53 53 52 50 49 49 49 48 48 47 46 46 44 41 41 41 40 41 42 42 42 43 42 42 43 42 43 42 41 40
57 56 55 54 53 53 53 52 52 53 53 53 52 52 51 50 49 49 48 47 46 47 45 44 43 43 42 42 41 41 41 40 40 40 41 40 40 40 40 40 39 40
55 54 53 53 52 51 51 51 52 52 52 52 51 50 50 49 48 49 47 46 45 44 44 45 45 45 47 42 42 40 40 41 41 40 39 40 39 39 39 39 38 39
53 52 51 51 51 51 51 51 51 52 52 51 50 50 50 49 48 47 46 45 44 44 44 45 44 43 39 38 38 39 41 42 40 40 40 39 39 38 38 39 39 38
51 51 50 51 51 50 50 50 50 50 50 50 50 50 50 49 49 47 46 45 43 41 41 42 42 41 37 38 38 37 40 40 41 41 40 39 37 37 38 39 39 40
50 50 49 49 49 49 49 49 49 50 50 50 50 50 50 48 47 46 44 43 42 40 40 39 40 38 37 38 38 37 36 39 38 39 39 38 38 37 37 37 38 39
50 49 49 49 49 49 49 49 49 49 50 50 50 49 49 48 47 45 43 42 41 39 38 38 39 39 37 38 38 38 36 36 39 39 38 37 37 38 38 38 37 37
49 49 49 49 49 50 50 49 50 50 49 49 49 48 48 47 46 44 42 42 40 39 38 39 42 38 37 37 37 37 36 36 40 40 38 38 38 38 38 38 37 38
50 49 49 49 49 49 49 49 50 48 49 48 48 48 47 46 44 43 42 41 40 40 39 38 42 37 36 37 37 37 36 39 38 38 37 36 37 37 37 37 36 36
49 49 49 49 49 48 48 49 48 48 48 48 48 47 46 45 44 42 41 41 40 40 39 38 39 39 36 36 36 36 39 37 38 35 36 37 38 37 36 38 38 35
49 48 49 48 49 48 48 48 48 48 48 48 47 45 45 44 42 40 41 40 40 39 38 37 38 40 36 36 36 36 37 36 34 35 36 38 37 36 33 32 36 44
49 49 49 48 48 48 49 48 48 48 48 48 47 46 45 42 40 39 39 40 40 40 41 39 38 40 37 36 36 36 40 37 32 33 34 35 35 34 34 32 32 38
50 49 49 49 48 49 49 48 48 47 47 46 46 45 42 40 39 39 39 39 40 40 40 39 37 38 41 36 36 36 37 43 33 33 34 33 33 32 33 34 32 32

ECMWFNIL_sfc_dewp_141.txt.gz
Dewpoint
66 66 65 67 67 66 67 67 66 64 64 63 64 64 64 65 64 64 64 63 61 60 59 58 58 58 57 57 57 56 56 56 55 55 55 55 55 55 54 54 53 52
66 66 66 67 66 67 68 68 67 65 64 65 64 64 64 64 65 65 64 61 60 59 58 57 57 56 56 56 56 56 55 54 53 52 53 53 54 54 54 53 52 51
65 66 66 65 66 66 67 67 67 66 66 65 64 64 64 63 63 63 62 60 58 57 57 57 56 55 55 56 56 55 55 53 53 54 53 53 52 52 52 51 50 50
65 65 66 65 66 66 66 66 66 65 64 63 63 64 64 63 63 63 60 59 58 57 56 56 56 55 54 55 55 53 53 52 52 53 53 52 52 51 51 51 50 49
66 65 65 65 66 66 66 65 65 64 62 64 62 63 63 64 64 60 58 58 57 56 55 54 54 54 54 54 53 52 52 51 52 52 51 51 51 51 49 48 47 46
65 64 64 64 65 65 65 64 63 62 61 63 63 62 62 62 60 59 58 56 56 55 54 53 53 53 53 53 53 52 51 50 50 49 48 47 46 47 46 47 47 46
65 64 65 64 65 65 64 64 62 62 62 62 62 61 61 60 60 57 56 55 54 53 52 52 52 52 53 53 51 50 49 49 48 47 46 45 45 45 43 44 44 43
64 65 64 64 64 64 62 62 61 62 61 61 61 62 59 58 58 57 55 54 52 52 52 51 51 51 52 51 49 49 49 48 47 45 45 45 45 44 44 44 46 44
65 65 65 64 64 62 62 61 62 61 61 61 61 62 60 58 57 56 54 52 52 52 51 51 50 50 52 49 49 48 46 47 47 45 45 44 44 43 42 44 45 46
64 64 64 64 62 62 61 61 60 60 61 61 62 62 62 58 56 54 53 52 52 51 50 49 50 51 49 46 46 46 45 44 44 45 44 43 42 42 42 44 44 44
63 63 63 62 61 61 61 60 60 60 61 60 62 62 57 56 55 54 53 51 51 50 49 49 50 48 46 46 46 46 44 44 43 43 44 44 44 44 44 43 43 43
62 62 62 60 60 61 60 60 60 60 58 60 59 56 55 55 54 53 51 49 49 48 47 48 47 46 44 44 44 44 45 45 45 44 44 43 42 43 43 43 43 42
61 61 60 59 58 58 58 59 58 59 58 57 57 55 54 54 54 52 52 49 47 47 47 48 46 44 44 44 43 43 44 44 44 44 43 43 43 42 42 42 41 41
61 61 59 59 58 58 57 59 59 58 58 57 56 54 53 53 52 51 50 48 48 46 48 47 44 43 43 43 42 43 45 44 44 45 44 44 44 42 42 41 39 38
60 59 59 58 57 57 56 57 58 56 56 55 55 54 54 52 51 50 49 47 46 47 46 45 44 44 43 43 43 43 44 44 44 43 44 44 43 42 41 39 38 37
58 58 58 58 57 56 55 55 55 55 55 54 53 52 53 52 50 50 48 47 46 46 46 45 44 47 48 44 44 43 42 43 43 43 42 41 41 41 40 38 35 36
57 57 57 57 57 56 56 56 55 54 54 53 52 52 53 51 49 48 47 46 46 45 45 46 46 44 39 38 39 41 43 43 42 42 42 41 40 39 37 37 38 39
56 55 55 55 54 54 55 54 54 53 53 52 52 52 51 51 50 47 47 46 46 46 47 46 44 41 38 38 38 38 41 42 42 41 41 41 40 39 38 40 42 44
55 55 54 54 54 54 54 53 53 52 51 51 51 51 51 50 48 48 47 47 47 45 45 43 42 39 37 37 37 36 38 42 40 41 39 40 41 41 41 40 39 39
54 53 53 53 53 53 53 52 52 51 51 51 51 51 51 49 48 47 46 45 44 43 42 42 42 39 37 38 37 36 35 37 41 41 41 39 39 39 40 39 39 39
53 52 52 52 52 52 52 51 51 51 50 51 50 49 49 48 47 45 45 43 41 40 39 41 43 38 37 37 36 36 36 38 41 41 40 41 41 40 40 41 39 38
51 51 51 51 51 51 51 51 51 51 51 51 50 49 48 47 45 45 43 41 40 39 39 39 42 37 37 37 36 35 36 41 40 40 40 39 39 39 38 38 37 37
51 51 51 51 51 50 50 51 51 51 51 50 49 48 47 46 45 43 42 41 40 39 38 37 39 38 36 36 35 35 38 38 39 35 37 38 38 38 36 37 38 35
51 51 50 50 50 50 50 51 51 51 50 49 48 47 46 45 44 42 41 41 40 39 36 35 36 39 36 35 36 36 40 40 35 36 37 37 38 40 40 39 38 42
51 51 50 50 50 51 51 51 50 50 49 49 48 47 46 44 42 42 42 41 40 38 41 36 35 38 36 35 35 36 42 42 34 36 37 36 33 32 36 36 35 38
51 51 51 50 50 50 50 50 49 48 48 48 48 46 44 42 42 42 41 40 40 38 37 37 35 36 39 35 36 36 37 40 34 34 34 33 30 27 28 31 31 30